TimePST,TemperatureF,Dew PointF,Humidity,Sea Level PressureIn,VisibilityMPH,Wind Direction,Wind SpeedMPH,Gust SpeedMPH,PrecipitationIn,Events,Conditions,WindDirDegrees,DateUTC
12:53 AM,46.9,39.9,77,30.06,10.0,SSW,9.2,-,N/A,,Overcast,210,2013-02-06 08:53:00
1:53 AM,46.0,39.0,76,30.08,10.0,SW,10.4,-,N/A,,Clear,220,2013-02-06 09:53:00
2:53 AM,46.0,39.0,76,30.08,10.0,SW,8.1,-,N/A,,Partly Cloudy,220,2013-02-06 10:53:00
3:53 AM,44.1,37.9,79,30.10,10.0,Calm,Calm,-,N/A,,Partly Cloudy,0,2013-02-06 11:53:00
4:53 AM,45.0,39.0,80,30.11,10.0,Calm,Calm,-,N/A,,Overcast,0,2013-02-06 12:53:00
5:53 AM,41.0,37.0,86,30.10,10.0,Calm,Calm,-,N/A,,Scattered Clouds,0,2013-02-06 13:53:00
6:53 AM,41.0,37.9,89,30.10,10.0,Calm,Calm,-,N/A,,Overcast,0,2013-02-06 14:53:00
7:53 AM,42.1,39.0,89,30.11,10.0,Calm,Calm,-,N/A,,Overcast,0,2013-02-06 15:53:00
8:53 AM,45.0,39.9,82,30.11,10.0,Calm,Calm,-,N/A,,Overcast,0,2013-02-06 16:53:00
9:53 AM,48.0,39.9,74,30.10,10.0,Variable,3.5,-,N/A,,Mostly Cloudy,0,2013-02-06 17:53:00
10:53 AM,50.0,39.9,68,30.09,10.0,SSW,5.8,-,N/A,,Overcast,200,2013-02-06 18:53:00
11:53 AM,50.0,39.9,68,30.07,10.0,SE,4.6,-,0.00,,Overcast,130,2013-02-06 19:53:00
12:53 PM,50.0,41.0,71,30.04,10.0,East,5.8,-,N/A,,Overcast,80,2013-02-06 20:53:00
1:53 PM,52.0,37.9,59,30.02,10.0,SSW,6.9,-,N/A,,Overcast,200,2013-02-06 21:53:00
2:53 PM,50.0,39.9,68,29.99,10.0,East,10.4,-,N/A,,Overcast,90,2013-02-06 22:53:00
3:53 PM,48.9,39.9,71,29.98,10.0,East,10.4,-,N/A,,Overcast,80,2013-02-06 23:53:00
4:53 PM,48.0,39.0,71,29.97,10.0,East,6.9,-,N/A,,Overcast,90,2013-02-07 00:53:00
5:53 PM,46.9,39.0,74,29.94,10.0,East,10.4,-,0.00,,Mostly Cloudy,80,2013-02-07 01:53:00
6:53 PM,46.9,39.9,77,29.91,10.0,East,8.1,-,N/A,,Overcast,100,2013-02-07 02:53:00
7:53 PM,46.9,39.9,77,29.89,10.0,ESE,5.8,-,N/A,,Overcast,120,2013-02-07 03:53:00
8:53 PM,46.0,39.0,76,29.88,10.0,East,5.8,-,N/A,,Overcast,100,2013-02-07 04:53:00
9:53 PM,46.0,37.9,73,29.86,10.0,East,9.2,-,N/A,,Overcast,90,2013-02-07 05:53:00
10:53 PM,48.0,39.0,71,29.89,10.0,South,4.6,-,0.01,Rain,Light Rain,190,2013-02-07 06:53:00
11:53 PM,45.0,37.9,76,29.93,7.0,SW,13.8,-,0.05,Rain,Light Rain,230,2013-02-07 07:53:00